[[{"header":{"parameterUnit":"m.s-1","parameterCategory":1,"la1":30.2991,"la2":30.254,"lo1":-89.0895,"lo2":-89.0444,"dy":0.0017,"dx":0.0017,"nx":28,"ny":28,"refTime":"2025-08-22T09:00:00:Z","depth":0,"parameterNumber":2,"parameterNumberName":"U-component_of_WINDS"},"data":[0,0,0,0,0,0,0,0,0,0,0,0,0,0,0,0,0,0,0,0,0,0,0,0,0,0,0,0,0,0,0,0,0,0,0,0,0,0,0,0,0,0,0,0,0,0,0,0,0,0,0,0,0,0,0,0,0,0,0.4856,0.4856,0,0.4884,0.4884,0.4885,0.4866,0.4865,0.4864,0.4864,0.4894,0.4896,0.4897,0,0,0,0,0,0,0,0,0,0,0,0,0,0.4789,0.479,0.4856,0.4856,0.4857,0.4884,0.4884,0.4885,0.4866,0.4865,0.4864,0.4863,0.4894,0.4896,0.4897,0,0,0,0,0,0,0,0,0,0,0,0,0,0.4818,0.4791,0.4856,0.4851,0.485,0.4884,0.4884,0.4885,0.4867,0.4865,0.4864,0.4863,0.4893,0.4895,0.4898,0.4938,0,0,0.4905,0.4906,0,0,0,0,0,0,0,0,0.4816,0.482,0.4851,0.4851,0.4851,0.487,0.4872,0.4903,0.4867,0.4861,0.4864,0.4862,0.4887,0.489,0.4898,0.494,0.4941,0.4905,0.4907,0.4908,0.4909,0,0,0,0,0,0,0,0.4814,0.4819,0.4867,0.4852,0.4852,0.4848,0.485,0.4878,0.4881,0.4861,0.486,0.4863,0.4887,0.4896,0.4899,0.4942,0.4905,0.4907,0.4909,0.491,0.5019,0.5021,0,0,0,0,0,0,0.4812,0.4817,0.4866,0.4868,0.483,0.485,0.4853,0.4865,0.4881,0.4882,0.4864,0.4862,0.4893,0.4896,0.49,0.4949,0.4908,0.491,0.4911,0.5018,0.502,0.5021,0,0,0,0,0,0,0.4811,0.4817,0.4865,0.4842,0.4848,0.4853,0.4867,0.4867,0.4876,0.4883,0.4884,0.4873,0.4892,0.4897,0.4929,0.495,0.4911,0.4913,0.5016,0.5018,0.502,0.5048,0,0,0,0,0,0,0.4809,0.4816,0.4831,0.4843,0.4849,0.4893,0.4868,0.4868,0.488,0.4877,0.4891,0.4892,0.4891,0.4926,0.4932,0.4953,0.4915,0.5014,0.5017,0.502,0.5045,0.5051,0.5055,0,0,0,0,0,0.4807,0.4838,0.4832,0.4838,0.4868,0.4894,0.4898,0.4896,0.4881,0.4897,0.4902,0.4892,0.4947,0.4929,0.4936,0.4958,0.5013,0.5016,0.5019,0.5043,0.5049,0.5055,0,0,0,0,0,0,0.4829,0.4839,0.4833,0.4869,0.4881,0.4891,0.4911,0.4903,0.492,0.4917,0.4914,0.4917,0.4952,0.4958,0.4938,0.4999,0.4978,0.4982,0.4993,0.5,0.5005,0.5002,0.4917,0,0,0,0,0,0.4838,0.4858,0.4866,0.4897,0.4903,0.4906,0.4918,0.4915,0.4927,0.4933,0.494,0.4953,0.4973,0.4987,0.5006,0.5046,0.5049,0.5064,0.507,0.5074,0.5078,0.51,0.5108,0.5032,0.5032,0.5032,0,0,0.4857,0.4865,0.4878,0.4902,0.4911,0.4932,0.491,0.4934,0.495,0.4936,0.4967,0.4973,0.4988,0.5025,0.5041,0.5031,0.51,0.5078,0.5081,0.5083,0.5105,0.5112,0.5118,0.5034,0.5034,0.5033,0,0,0.4903,0.4911,0.4937,0.4947,0.4961,0.4963,0.4969,0.4981,0.4984,0.5016,0.5006,0.5026,0.506,0.5072,0.5082,0.5133,0.5125,0.5139,0.5166,0.5188,0.5194,0.52,0.5218,0.5225,0.5143,0.5144,0.5144,0,0.4925,0.4956,0.4952,0.4977,0.4988,0.4976,0.5004,0.5014,0.5034,0.5042,0.503,0.5074,0.5083,0.5123,0.5135,0.5144,0.5152,0.5138,0.5194,0.5199,0.5204,0.5222,0.5229,0.5145,0.5145,0.5145,0.5145,0,0.4983,0.5005,0.5025,0.5044,0.5058,0.5084,0.5085,0.5099,0.5096,0.5099,0.5131,0.5142,0.5163,0.5173,0.5169,0.5212,0.5205,0.5194,0.5173,0.5213,0.5229,0.5236,0.5148,0.5147,0.5147,0.5146,0,0,0.5043,0.506,0.5067,0.5076,0.5091,0.5109,0.5135,0.5155,0.5168,0.5182,0.5205,0.5235,0.5224,0.5236,0.5234,0.5253,0.5294,0.5239,0.524,0.5249,0.5343,0.5351,0.5359,0.5289,0.529,0.5291,0.5341,0,0.509,0.5134,0.5132,0.5174,0.5195,0.5185,0.5208,0.522,0.5224,0.5243,0.5248,0.5269,0.5253,0.5261,0.5279,0.5285,0.5313,0.5281,0.531,0.5311,0.5307,0.5368,0.5377,0.5424,0.5348,0.5349,0.535,0,0.515,0.5166,0.521,0.5223,0.5231,0.5252,0.5271,0.5289,0.5303,0.5305,0.5318,0.5313,0.5341,0.5319,0.5357,0.5336,0.5348,0.5353,0.5355,0.5357,0.5333,0.5372,0.5439,0.5446,0.536,0.5359,0.5358,0,0.519,0.5222,0.5253,0.5261,0.5276,0.5291,0.5298,0.5311,0.5324,0.5341,0.535,0.537,0.5381,0.5397,0.5398,0.5382,0.5437,0.5415,0.544,0.544,0.5452,0.5451,0.5521,0.5459,0.5459,0.5459,0.5459,0,0.5242,0.5269,0.5271,0.529,0.5321,0.5319,0.535,0.5356,0.5368,0.5388,0.5381,0.5401,0.5401,0.5421,0.5423,0.5454,0.5459,0.5462,0.5462,0.5463,0.5463,0.547,0.5467,0.5461,0.546,0.546,0.546,0,0.5291,0.5294,0.5327,0.5339,0.5342,0.5365,0.5375,0.5394,0.5398,0.5424,0.543,0.5436,0.546,0.5463,0.549,0.5491,0.553,0.5526,0.5525,0.5524,0.5548,0.5546,0.5626,0.5637,0.5568,0.5569,0.5569,0,0.5325,0.5346,0.536,0.5373,0.5381,0.5402,0.5415,0.5415,0.5429,0.5447,0.5463,0.5486,0.5504,0.5543,0.555,0.5572,0.5569,0.5595,0.5572,0.5572,0.557,0.5568,0.5571,0.56,0.5601,0.5601,0.5602,0,0.5384,0.5384,0.5403,0.5422,0.5438,0.5453,0.5468,0.5479,0.548,0.5497,0.5521,0.5535,0.5563,0.5586,0.5608,0.5616,0.561,0.5609,0.5616,0.5617,0.5615,0.5617,0.5537,0.5607,0.5607,0.5606,0.5606,0.5606,0.5426,0.5445,0.5458,0.5479,0.549,0.5504,0.5522,0.5528,0.5548,0.5571,0.5569,0.5596,0.5611,0.5638,0.5648,0.567,0.5661,0.5671,0.5673,0.5676,0.5678,0.5612,0.5674,0.5674,0.5673,0.5673,0.5673,0,0.5485,0.5493,0.5513,0.5533,0.555,0.5542,0.5558,0.5573,0.5597,0.5611,0.5629,0.5657,0.568,0.5689,0.5711,0.5727,0.5724,0.5733,0.5732,0.5734,0.5685,0.5677,0.5734,0.5734,0.5734,0.5734,0.5734,0.5734,0.5518,0.5549,0.5551,0.5587,0.5595,0.5621,0.5631,0.5644,0.5655,0.5687,0.5705,0.5711,0.5723,0.5747,0.5768,0.577,0.5778,0.5788,0.5789,0.5743,0.5737,0.5731,0.5724,0.579,0.579,0.5836,0.5837,0.5837]},{"header":{"parameterUnit":"m.s-1","parameterCategory":1,"la1":30.2991,"la2":30.254,"lo1":-89.0895,"lo2":-89.0444,"dy":0.0017,"dx":0.0017,"nx":28,"ny":28,"refTime":"2025-08-22T09:00:00:Z","depth":0,"parameterNumber":3,"parameterNumberName":"V-component_of_WINDS"},"data":[0,0,0,0,0,0,0,0,0,0,0,0,0,0,0,0,0,0,0,0,0,0,0,0,0,0,0,0,0,0,0,0,0,0,0,0,0,0,0,0,0,0,0,0,0,0,0,0,0,0,0,0,0,0,0,0,0,0,-1.6543,-1.6543,0,-1.6558,-1.6558,-1.6558,-1.6532,-1.6531,-1.653,-1.653,-1.6545,-1.6546,-1.6547,0,0,0,0,0,0,0,0,0,0,0,0,0,-1.6496,-1.6497,-1.6543,-1.6543,-1.6544,-1.6558,-1.6558,-1.6558,-1.6532,-1.6531,-1.653,-1.6529,-1.6545,-1.6546,-1.6547,0,0,0,0,0,0,0,0,0,0,0,0,0,-1.6514,-1.6497,-1.6543,-1.6532,-1.6532,-1.6558,-1.6558,-1.6558,-1.6533,-1.6531,-1.653,-1.6529,-1.6544,-1.6546,-1.6548,-1.6585,0,0,-1.6553,-1.6554,0,0,0,0,0,0,0,0,-1.6513,-1.6516,-1.6534,-1.6533,-1.6532,-1.6542,-1.6547,-1.6567,-1.6533,-1.6532,-1.653,-1.6528,-1.6545,-1.6547,-1.6552,-1.6586,-1.6586,-1.6553,-1.6555,-1.6555,-1.6556,0,0,0,0,0,0,0,-1.6512,-1.6515,-1.6549,-1.6534,-1.6533,-1.6528,-1.6529,-1.655,-1.6546,-1.6532,-1.653,-1.6532,-1.6544,-1.6551,-1.6552,-1.6587,-1.6553,-1.6555,-1.6556,-1.6557,-1.6654,-1.6655,0,0,0,0,0,0,-1.6511,-1.6514,-1.6548,-1.6549,-1.6519,-1.653,-1.6531,-1.654,-1.6545,-1.6545,-1.6533,-1.6531,-1.6548,-1.655,-1.6553,-1.6598,-1.6555,-1.6557,-1.6558,-1.6653,-1.6654,-1.6656,0,0,0,0,0,0,-1.6511,-1.6515,-1.6548,-1.6531,-1.6535,-1.6532,-1.6542,-1.6541,-1.6547,-1.6546,-1.6546,-1.654,-1.6547,-1.655,-1.6578,-1.6598,-1.6558,-1.6559,-1.6651,-1.6653,-1.6655,-1.6689,0,0,0,0,0,0,-1.6509,-1.6515,-1.6528,-1.6532,-1.6536,-1.6572,-1.6544,-1.6542,-1.655,-1.6547,-1.6553,-1.6552,-1.6546,-1.6575,-1.658,-1.66,-1.6561,-1.6649,-1.6652,-1.6654,-1.6686,-1.6692,-1.6697,0,0,0,0,0,-1.6508,-1.6536,-1.6529,-1.6533,-1.6553,-1.6573,-1.6575,-1.6568,-1.6552,-1.6566,-1.6566,-1.6552,-1.6596,-1.6578,-1.6583,-1.6604,-1.6648,-1.6651,-1.6654,-1.6683,-1.6691,-1.6697,0,0,0,0,0,0,-1.6534,-1.6536,-1.6528,-1.6559,-1.6566,-1.6569,-1.6586,-1.6575,-1.6587,-1.6584,-1.6574,-1.6576,-1.6606,-1.6608,-1.6588,-1.6642,-1.6619,-1.6624,-1.6639,-1.6647,-1.6652,-1.6651,-1.6562,0,0,0,0,0,-1.6544,-1.656,-1.6561,-1.6588,-1.6592,-1.6589,-1.6597,-1.6591,-1.6598,-1.6601,-1.6603,-1.6611,-1.6626,-1.6636,-1.665,-1.6686,-1.6688,-1.6704,-1.6709,-1.6714,-1.6718,-1.6739,-1.6747,-1.6667,-1.6667,-1.6667,0,0,-1.6564,-1.6567,-1.6577,-1.6594,-1.6599,-1.6616,-1.6591,-1.661,-1.6624,-1.6604,-1.663,-1.6632,-1.664,-1.6673,-1.6687,-1.6675,-1.6741,-1.6718,-1.6722,-1.6723,-1.6743,-1.6751,-1.6758,-1.6669,-1.6669,-1.6668,0,0,-1.6609,-1.6612,-1.6636,-1.6642,-1.665,-1.6648,-1.6654,-1.6659,-1.6659,-1.6686,-1.6672,-1.6688,-1.6714,-1.6722,-1.6729,-1.678,-1.6768,-1.6785,-1.6814,-1.6835,-1.6841,-1.6847,-1.6866,-1.6873,-1.6789,-1.6789,-1.6789,0,-1.6632,-1.6658,-1.665,-1.6671,-1.6679,-1.6663,-1.6688,-1.6694,-1.6706,-1.6713,-1.67,-1.6734,-1.6738,-1.6773,-1.6786,-1.6792,-1.6799,-1.6784,-1.6841,-1.6846,-1.6852,-1.687,-1.6877,-1.6791,-1.6791,-1.679,-1.679,0,-1.6687,-1.6705,-1.6724,-1.6737,-1.6747,-1.677,-1.6767,-1.6778,-1.6772,-1.6772,-1.68,-1.6805,-1.6821,-1.6829,-1.6822,-1.6864,-1.6856,-1.6842,-1.6819,-1.6861,-1.6879,-1.6886,-1.6794,-1.6793,-1.6793,-1.6792,0,0,-1.6748,-1.6758,-1.6765,-1.6772,-1.6781,-1.6795,-1.6818,-1.6834,-1.6845,-1.6855,-1.6875,-1.6899,-1.6887,-1.6895,-1.689,-1.6908,-1.695,-1.6892,-1.6892,-1.6903,-1.6998,-1.7009,-1.7017,-1.6943,-1.6944,-1.6945,-1.6998,0,-1.6793,-1.6833,-1.6827,-1.6866,-1.6883,-1.687,-1.689,-1.6898,-1.69,-1.6916,-1.6917,-1.6935,-1.6917,-1.6922,-1.6939,-1.6941,-1.6969,-1.6937,-1.6962,-1.6963,-1.6961,-1.7026,-1.7037,-1.7086,-1.7004,-1.7005,-1.7006,0,-1.6851,-1.6864,-1.6904,-1.6913,-1.692,-1.6938,-1.6954,-1.6969,-1.6979,-1.6979,-1.699,-1.6982,-1.7006,-1.6983,-1.7018,-1.6997,-1.7007,-1.701,-1.7012,-1.7014,-1.6987,-1.703,-1.7101,-1.7109,-1.7017,-1.7016,-1.7015,0,-1.6893,-1.692,-1.6948,-1.6954,-1.6965,-1.6978,-1.6983,-1.6992,-1.7003,-1.7017,-1.7024,-1.7041,-1.705,-1.7064,-1.7061,-1.7044,-1.7097,-1.7073,-1.7099,-1.7099,-1.711,-1.711,-1.7184,-1.7116,-1.7116,-1.7116,-1.7116,0,-1.6944,-1.697,-1.6967,-1.6985,-1.7014,-1.7008,-1.7037,-1.704,-1.7049,-1.7068,-1.7057,-1.7075,-1.707,-1.7089,-1.7087,-1.7117,-1.7121,-1.7123,-1.7122,-1.7124,-1.7124,-1.713,-1.7127,-1.7118,-1.7117,-1.7117,-1.7117,0,-1.6995,-1.6994,-1.7024,-1.7032,-1.7035,-1.7056,-1.7064,-1.7081,-1.7082,-1.7106,-1.7111,-1.7113,-1.7135,-1.7134,-1.7157,-1.7157,-1.7194,-1.7189,-1.7191,-1.719,-1.7216,-1.7214,-1.7297,-1.7309,-1.7233,-1.7234,-1.7234,0,-1.7028,-1.7047,-1.7058,-1.707,-1.7076,-1.7095,-1.7107,-1.7103,-1.7116,-1.713,-1.7146,-1.7167,-1.7183,-1.7218,-1.7222,-1.7241,-1.7237,-1.7265,-1.7239,-1.7241,-1.7238,-1.7238,-1.724,-1.727,-1.7271,-1.7271,-1.7272,0,-1.7087,-1.7086,-1.7103,-1.712,-1.7135,-1.7148,-1.716,-1.7171,-1.7169,-1.7184,-1.7206,-1.7219,-1.7244,-1.7265,-1.7284,-1.729,-1.7281,-1.728,-1.7287,-1.7289,-1.729,-1.7291,-1.7205,-1.7278,-1.7277,-1.7277,-1.7277,-1.7276,-1.713,-1.7148,-1.7159,-1.7178,-1.7188,-1.72,-1.7217,-1.7222,-1.724,-1.726,-1.7257,-1.7282,-1.7295,-1.7319,-1.7327,-1.7348,-1.7338,-1.7348,-1.735,-1.7353,-1.7357,-1.7287,-1.7351,-1.7351,-1.7351,-1.7351,-1.735,0,-1.7189,-1.7196,-1.7215,-1.7233,-1.7249,-1.724,-1.7254,-1.7269,-1.7291,-1.7303,-1.732,-1.7346,-1.7367,-1.7374,-1.7395,-1.741,-1.7407,-1.7416,-1.7415,-1.7417,-1.7363,-1.7356,-1.7418,-1.7418,-1.7418,-1.7418,-1.7418,-1.7418,-1.7222,-1.7252,-1.7253,-1.7288,-1.7295,-1.732,-1.7329,-1.7341,-1.7351,-1.7382,-1.7399,-1.7404,-1.7414,-1.7436,-1.7456,-1.7458,-1.7466,-1.7477,-1.7477,-1.7427,-1.742,-1.7414,-1.7407,-1.7479,-1.7479,-1.7529,-1.753,-1.753]}]]